Location: Newark
(42.7133°N, 87.7910°W)
Time: 06:08:56
(UTC+00:00)

Tiros 1 - Pass Details

Date: 28 September 2019
Orbit: 630 x 664 km, 48.4° (Epoch: 17 October)

Event Time Altitude Azimuth Distance (km) Brightness Sun altitude
Rises 20:45:59 0° 296° (WNW) 2,966 10.9 28.9°
Reaches altitude 10° 20:48:20 10° 296° (WNW) 2,048 10.2 28.6°
Maximum altitude 20:53:04 89° 20° (NNE) 646 7.6 27.9°
Drops below altitude 10° 20:57:44 10° 117° (ESE) 2,019 9.5 27.1°
Sets 21:00:02 0° 118° (ESE) 2,920 10.2 26.8°
